Location: Newark
(7.0858°N, 171.3717°E)
Time: 14:34:06
(UTC+00:00)

Courier 1B Rocket - Pass Details

Date: 01 December 2020
Orbit: 920 x 1202 km, 28.2° (Epoch: 20 January)

Event Time Altitude Azimuth Distance (km) Brightness Sun altitude
Rises 23:39:08 0° 301° (WNW) 3,975 7.9 58.9°
Reaches altitude 10° 23:42:01 10° 303° (WNW) 2,978 7.4 59.2°
Maximum altitude 23:49:19 77° 29° (NNE) 1,083 6.2 59.7°
Drops below altitude 10° 23:56:05 10° 114° (ESE) 2,768 7.8 60.1°
Sets 23:58:40 0° 116° (ESE) 3,680 8.3 60.3°
